Regional Weather Roundup
Issued by NWS Northern Indiana

Home | Current Version | Previous Version | Graphics & Text | Print | Product List | Glossary On
Versions: 1 2 3 4 5 6 7 8 9 10 11 12 13 14 15 16 17 18 19 20 21 22 23 24 25 26 27 28 29 30 31 32 33 34 35 36 37 38 39 40 41 42 43 44 45 46 47 48 49 50
861
ASUS43 KIWX 201310
RWRIWX

KIWX WEATHER ROUNDUP
NATIONAL WEATHER SERVICE NORTHERN INDIANA
800 AM EST FRI JAN 20 2017

NOTE: "FAIR" INDICATES FEW OR NO CLOUDS BELOW 12,000 FEET WITH NO
SIGNIFICANT WEATHER AND/OR OBSTRUCTIONS TO VISIBILITY.

* THESE STATIONS ARE NOT UNDER NWS QUALITY CONTROL. THEY ALSO MAY NOT
  REPORT WEATHER SUCH AS PRECIPITATION OR FOG.

INZ001>027-201400-
NORTHERN INDIANA

CITY           SKY/WX    TMP DP  RH WIND       PRES   REMARKS
GARY*          LGT RAIN  39  39 100 NE6       29.62S
VALPARAISO     CLOUDY    38  38 100 NE5       29.61S FOG
LAPORTE*       RAIN      37  37  99 NE3       29.62S
KNOX*          CLOUDY    37  32  81 NE3       29.60S
SOUTH BEND     CLOUDY    37  36  96 E5        29.62S FOG
ELKHART*       DRIZZLE   37  36  93 CALM      29.61S
GOSHEN         CLOUDY    37  34  89 E6        29.60S FOG
ROCHESTER*     CLOUDY    41  41 100 CALM      29.60S FOG
WARSAW*        DRIZZLE   36  34  93 E3        29.60S
FORT WAYNE     DRIZZLE   39  37  92 E7        29.59F FOG
PERU/GRISSOM   CLOUDY    40  40 100 CALM      29.58R
MARION*        CLOUDY    41  41 100 SE3       29.60R FOG

$$
INZ028>050-201400-
CENTRAL INDIANA

CITY           SKY/WX    TMP DP  RH WIND       PRES   REMARKS
LAFAYETTE      CLOUDY    42  42 100 CALM      29.60R FOG
KOKOMO*        LGT RAIN  41  40  96 CALM      29.61R FOG
MUNCIE*        FOG       47  45  93 SW8       29.60R VSB 1
INDIANAPOLIS   FOG       49  49 100 SW10      29.62R VSB 1/4

$$
MIZ043>046-050>051-056>058-064>065-071>073-077>080-201400-
SOUTHWEST LOWER MICHIGAN

CITY           SKY/WX    TMP DP  RH WIND       PRES   REMARKS
BATTLE CREEK   LGT RAIN  36  35  96 NE7       29.63F FOG
BENTON HARBOR  CLOUDY    39  36  89 NE5       29.62F FOG
COLDWATER*     LGT RAIN  36  36 100 E6        29.61F
HILLSDALE*     MIX PCPN  32  32 100 E9        29.60F WCI  24
HOLLAND        LGT RAIN  36  34  92 NE7       29.66F
GRAND RAPIDS   LGT RAIN  34  32  92 NE8       29.67F FOG     WCI  27
KALAMAZOO      LGT RAIN  37  34  89 NE5       29.63F FOG
STURGIS*       MIX PCPN  35  35  97 E6        29.60S WCI  30
THREE RIVERS*  DRIZZLE   36  35  97 NE5       29.62S

$$
OHZ001>008-015>018-024>025-201400-
NORTHWEST OHIO

CITY           SKY/WX    TMP DP  RH WIND       PRES   REMARKS
DEFIANCE       CLOUDY    36  35  96 NE7       29.61F FOG
FINDLAY        LGT RAIN  43  39  86 SE8       29.60F FOG
TOLEDO EXPRESS LGT RAIN  35  35 100 NE12      29.62F WCI  27
TOLEDO METCALF LGT RAIN  36  36 100 NE8       29.64F FOG
LIMA           LGT RAIN  44  44 100 S9        29.59F

$$
AND FOR LAKE MICHIGAN COASTAL AND OPEN LAKE BUOY OBSERVATIONS

STATION/POSITION TEMP    WIND        PRES    VSBY  WAVE
                 AIR SEA DIR/SP/G                  HT/PER
                 (F)     (DEG/KT/KT) (MB)    (MI)  (FT/S)
CALUMET HARBOR    35      20/  5/  7 1002.8S
MICHIGAN CITY     34      40/  7/  8   N/A
BURNS HARBOR      35      90/  9/ 11 1003.7S

$$
&&




USA.gov is the U.S. government's official web portal to all federal, state and local government web resources and services.